Regional Weather Roundup
Issued by NWS

Home | Current Version | Previous Version | Text Only | Print | Product List | Glossary On
Versions: 1 2 3 4 5 6 7 8 9 10 11 12 13 14 15 16 17 18 19 20 21 22 23 24 25 26 27 28 29 30 31 32 33 34 35 36 37 38 39 40 41 42 43 44 45 46 47 48 49 50
994
ASUS43 KTOP 142059
RWRKS

WEATHER ROUNDUP FOR KANSAS
NATIONAL WEATHER SERVICE GOODLAND KS
300 PM CST THU DEC 14 2017

NOTE:  "FAIR" INDICATES FEW OR NO CLOUDS BELOW 12,000 FEET WITH NO
SIGNIFICANT WEATHER AND/OR OBSTRUCTIONS TO VISIBILITY.

KSZ001>006-013>018-027>032-041>047-142200-
NORTHWEST KANSAS

CITY           SKY/WX    TMP DP  RH WIND       PRES   REMARKS
GOODLAND       MOSUNNY   38  26  62 N28G38    30.15R WCI  26
HAYS           LGT RAIN  42  32  67 N15       30.12R
HILL CITY      CLOUDY    43  28  55 N25G31    30.13R
RUSSELL        LGT RAIN  43  33  68 N17       30.09R
$$

KSZ061>065-074>080-084>089-142200-
SOUTHWEST KANSAS

CITY           SKY/WX    TMP DP  RH WIND       PRES   REMARKS
DODGE CITY     CLOUDY    46  25  43 NW12G25   30.11S
GARDEN CITY    CLOUDY    46  22  38 N22G31    30.12S
GREAT BEND     CLOUDY    47  29  49 NW16      30.09F
LIBERAL        MOSUNNY   48  24  39 N23       30.13F
$$

KSZ066>073-081>083-090>101-142200-
SOUTHEAST KANSAS

CITY           SKY/WX    TMP DP  RH WIND       PRES   REMARKS
CHANUTE        PTSUNNY   46  25  43 W6        30.09F
COFFEYVILLE    MOSUNNY   48  26  42 NW9       30.11F
HUTCHINSON     CLOUDY    48  30  49 NW16      30.08S
MEDICINE LODGE   N/A     51  26  37 NW12      30.09F
NEWTON         CLOUDY    46  26  45 NW17      30.08F
PARSONS        MOSUNNY   46  26  45 NW9       30.11F
WICHITA INTL   CLOUDY    50  26  39 NW10      30.08F
WICHITA JABRA  CLOUDY    48  26  42 NW8       30.08S
WICHITA MCCONL CLOUDY    48  24  39 NW8       30.08F
WINFIELD       SUNNY     49  26  41 NW13      30.11F
$$

KSZ007>012-019>026-033>040-048>060-102>105-142200-
NORTHEAST KANSAS

CITY           SKY/WX    TMP DP  RH WIND       PRES   REMARKS
CONCORDIA      CLOUDY    43  32  65 NW7       30.07S
EMPORIA        CLOUDY    47  25  42 N12       30.07S
LAWRENCE       CLOUDY    44  25  47 W8        30.07F
MANHATTAN      CLOUDY    48  27  44 W9        30.07S
OLATHE IND     CLOUDY    40  26  57 N5        30.08S
OLATHE EXE     CLOUDY    39  25  57 VRB3      30.07S
SALINA         MOSUNNY   48  31  51 NW14      30.09S
TOPEKA BILLARD CLOUDY    47  27  45 NW10      30.07S
TOPEKA FORBES  PTSUNNY   47  26  44 NW12      30.06S
$$




USA.gov is the U.S. government's official web portal to all federal, state and local government web resources and services.